www.pogodaiklimat.ru
ПОГОДА в Тересполе

Архив погоды в Тересполе (Польша)

Время
(UTC), дата
16 21.05
17 21.05
18 21.05
19 21.05
20 21.05
21 21.05
22 21.05
23 21.05
00 22.05
01 22.05
02 22.05
03 22.05
04 22.05
05 22.05
06 22.05
07 22.05
08 22.05
09 22.05
10 22.05
11 22.05
12 22.05
13 22.05
14 22.05
15 22.05
16 22.05
17 22.05
18 22.05
19 22.05
20 22.05
21 22.05
22 22.05
23 22.05
00 23.05
01 23.05
02 23.05
03 23.05
04 23.05
05 23.05
06 23.05
07 23.05
08 23.05
09 23.05
10 23.05
11 23.05
12 23.05
13 23.05
14 23.05
15 23.05
16 23.05
17 23.05
18 23.05
19 23.05
20 23.05
21 23.05
22 23.05
23 23.05
00 24.05
01 24.05
02 24.05
03 24.05
04 24.05
05 24.05
06 24.05
07 24.05
08 24.05
09 24.05
10 24.05
11 24.05
12 24.05
13 24.05
14 24.05
15 24.05
16 24.05
17 24.05
18 24.05
19 24.05
20 24.05
21 24.05
22 24.05
23 24.05
00 25.05
01 25.05
02 25.05
03 25.05
04 25.05
05 25.05
06 25.05
07 25.05
08 25.05
09 25.05
10 25.05
11 25.05
12 25.05
13 25.05
14 25.05
15 25.05
16 25.05
17 25.05
18 25.05
19 25.05
20 25.05
21 25.05
22 25.05
23 25.05
00 26.05
01 26.05
02 26.05
03 26.05
04 26.05
05 26.05
06 26.05
07 26.05
08 26.05
09 26.05
10 26.05
11 26.05
12 26.05
13 26.05
14 26.05
15 26.05
16 26.05
17 26.05
18 26.05
19 26.05
20 26.05
21 26.05
22 26.05
23 26.05
00 27.05
01 27.05
02 27.05
03 27.05
04 27.05
05 27.05
06 27.05
07 27.05
08 27.05
09 27.05
10 27.05
11 27.05
12 27.05
13 27.05
14 27.05
15 27.05
16 27.05
17 27.05
18 27.05
19 27.05
20 27.05
21 27.05
22 27.05
23 27.05
00 28.05
01 28.05
02 28.05
03 28.05
04 28.05
05 28.05
06 28.05
07 28.05
08 28.05
09 28.05
10 28.05
11 28.05
12 28.05
13 28.05
14 28.05
15 28.05
16 28.05
17 28.05
Ветер
(напр.,м/с)
Видим. Явления Облачность Т
(С)
Тd
(С)
f
(%)
Тe
(С)
Тes
(С)
Комфортность P
(гПа)
Po
(гПа)
Тmin
(С)
Tmax
(С)
R
(мм)
R24
(мм)
S
(см)
В 4 27 км 8/6 1000 м
[Cb cap Cs]
+24.6 +12.5 47 +26 +27 жарко 1013.3 997.4
В 3 35 км в посл. час ливневой дождь 6/4 1000 м
[Cb cap Cs]
+21.8 +13.2 58 +24 +25 комфорт 1013.8 997.7
В 3 35 км {ливн. дождь} 4/3 1000 м
[Cb cap Cs]
+20.2 +12.2 60 +22 +22 комфорт 1013.6 997.5 +16.1 +25.2 0.0
В 3 45 км н/о +18.4 +13.5 73 +19 +19 1014.4 998.1
СВ 3 40 км н/о +17.7 +13.8 78 +18 +18 1014.1 997.8
В 2 35 км н/о +16.3 +13.4 83 +16 +16 1014.5 998.1
В 2 30 км н/о +15.9 +13.6 86 +16 +16 1014.3 997.9
В 3 30 км н/о +16.3 +13.8 85 +16 +16 1014.0 997.6
В 3 26 км н/о +16.1 +13.9 87 +16 +16 1013.5 997.1
СВ 2 16 км н/о +14.9 +13.4 91 +15 +15 1013.2 996.8
СВ 3 12 км н/о +14.7 +13.6 93 +14 +14 1012.7 996.3
В 4 14 км н/о +14.9 +13.6 92 +14 +14 1012.8 996.4
СВ 2 17 км н/о +15.6 +13.6 88 +15 +15 1013.2 996.8
В 3 21 км н/о +16.7 +13.8 83 +16 +16 1013.1 996.8
В 3 19 км 4/0
[Ac cast Ci sp]
+18.3 +14.0 76 +19 +23 1012.8 996.6 +14.5 +20.2 0.0
СВ 3 28 км 6/0
[Ac cast Ci sp]
+20.1 +14.2 69 +23 +28 комфорт 1012.2 996.1
В 4 23 км 8/1 600 м
[Cu hum Ac cast Ci sp]
+21.4 +14.3 64 +24 +29 комфорт 1012.4 996.3
В 4 30 км 8/1 1000 м
[Cu hum Ac trans Ci sp]
+23.2 +13.1 53 +26 +32 жарко 1012.2 996.2
ЮВ 6 {10} 26 км 6/1 1000 м
[Cu med, cong Ac trans Ci sp]
+23.9 +12.2 48 +26 +30 жарко 1011.9 996.0
В 5 {11} 26 км 8/1 1500 м
[Cu med, cong Ac cast Cs]
+24.9 +12.8 47 +27 +31 жарко 1011.8 995.9
ЮВ 5 {11} 26 км 8/1 1500 м
[Cu med, cong Cs]
+25.1 +12.0 44 +27 +33 жарко 1011.6 995.7
ЮВ 5 {10} 25 км 8/1 1500 м
[Cu hum Cs]
+24.9 +10.0 39 +26 +31 жарко 1011.1 995.2
ЮВ 4-9 {11} 35 км 6/1 1500 м
[Cu hum Ac trans Cs]
+25.4 +9.2 36 +26 +30 жарко 1010.7 994.9
ЮВ 5 {11} 27 км 8/1 1500 м
[Cu hum Ac trans Cs]
+25.1 +8.1 34 +25 +27 комфорт 1010.7 994.9
ЮВ 5 30 км 9/4 1500 м
[Cb calv Ac trans Cs]
+25.2 +6.9 31 +25 +26 комфорт 1011.2 995.4
ЮВ 3 40 км 9/5 1000 м
[Cb calv Ac trans Cs]
+23.7 +8.1 37 +24 +24 комфорт 1011.4 995.5
Ю 4 {11} 40 км 9/6 1000 м
[Cb cap Ac trans Cs]
+23.7 +6.5 33 +24 +24 комфорт 1011.6 995.7 +18.3 +25.8
В 1 50 км н/о +20.0 +9.5 51 +22 +22 комфорт 1012.3 996.2
В 2 45 км н/о +18.0 +12.2 69 +19 +19 1012.8 996.5
В 2 40 км н/о +19.8 +10.2 54 +22 +22 комфорт 1012.8 996.6
В 4 40 км н/о +20.4 +9.6 50 +22 +22 комфорт 1012.8 996.7
В 4 45 км н/о +20.2 +9.7 51 +22 +22 комфорт 1012.7 996.6
В 4 40 км н/о +19.9 +10.3 54 +21 +21 комфорт 1012.9 996.7 0.0
В 3 40 км н/о +19.2 +10.7 58 +20 +20 1013.2 997.0
В 3 40 км н/о +18.4 +11.0 62 +19 +19 1013.4 997.2
В 3 45 км н/о +18.1 +10.9 63 +18 +18 1014.0 997.7
В 3 40 км н/о +17.3 +11.6 69 +17 +17 1014.6 998.3
В 3 30 км н/о +18.1 +11.9 67 +18 +18 1015.0 998.7
ЮВ 3 24 км 9/0
[Ac trans Cs]
+19.8 +12.5 63 +22 +25 комфорт 1015.3 999.1 +17.2 +23.7 0.0 0.0
ЮВ 3 27 км 9/0
[Ac trans Cs]
+21.9 +11.6 52 +24 +30 комфорт 1015.4 999.3
Ю 5 30 км 8/0
[Ac trans Cs]
+24.1 +11.1 44 +25 +31 комфорт 1015.4 999.4
ЮВ 6-11 {11} 30 км 6/3 1500 м
[Cu hum Ac trans Ci sp]
+24.7 +8.6 36 +25 +29 комфорт 1015.4 999.5
ЮВ 7-12 {12} 29 км 9/5 2000 м
[Cu med, cong Ci sp]
+26.2 +8.2 32 +26 +28 жарко 1015.6 999.7
ЮВ 7 {12} 24 км 9/5 2000 м
[Cu med, cong Ac trans Ci sp]
+26.4 +8.4 32 +26 +28 жарко 1015.7 999.9
ЮВ 6 {12} 27 км 8/4 2000 м
[Cu med, cong Ac trans Ci fib]
+26.3 +9.2 34 +27 +29 жарко 1015.4 999.6
ЮВ 5 35 км 6/4 2000 м
[Cu med, cong Ci sp]
+27.0 +8.9 32 +27 +31 жарко 1015.1 999.3
ЮВ 5 {12} 29 км 8/4 2000 м
[Cu med, cong Ci sp]
+26.2 +8.2 32 +26 +29 жарко 1015.1 999.3
ЮВ 3 {12} 28 км 8/4 1500 м
[Cb calv Ci sp]
+26.5 +9.8 35 +27 +29 жарко 1015.5 999.7
ЮВ 3 35 км 8/4 1500 м
[Cb calv Ac trans Ci sp]
+26.1 +9.4 35 +27 +27 жарко 1015.7 999.8
В 2 30 км в посл. час ливневой дождь 8/4 1500 м
[Cb cap Ac trans Ci sp]
+23.9 +11.2 45 +25 +26 комфорт 1016.2 1000.2
В 3 {12} 35 км {ливн. дождь} 8/4 1500 м
[Cb calv Ac trans Ci sp]
+23.2 +10.3 44 +25 +25 комфорт 1016.6 1000.6 +19.7 +27.2 0.0
В 4 40 км н/о +22.4 +10.2 46 +24 +24 комфорт 1017.3 1001.2
В 3 45 км н/о +21.2 +10.9 52 +23 +23 комфорт 1018.2 1002.0
В 4 45 км н/о +20.4 +10.5 53 +22 +22 комфорт 1018.7 1002.5
В 3 45 км н/о +19.6 +10.8 57 +21 +21 комфорт 1019.2 1002.9
В 2 50 км н/о +19.2 +11.2 60 +21 +21 комфорт 1019.4 1003.1
В 2 45 км н/о +18.6 +11.2 62 +20 +20 1019.5 1003.2
В 2 50 км н/о +17.8 +11.1 65 +18 +18 1019.7 1003.3
В 3 45 км н/о +17.3 +11.8 70 +17 +17 1020.0 1003.6
В 3 40 км н/о +17.0 +12.1 73 +17 +17 1020.1 1003.7
В 2 35 км н/о +17.2 +12.3 73 +18 +18 1020.3 1003.9
В 3 29 км н/о +17.5 +12.4 72 +18 +18 1020.6 1004.2
В 3 30 км 6/4 600 м
[Cb cap Ac trans]
+18.3 +12.7 70 +19 +21 1021.0 1004.6 +16.8 +23.2 0.0
В 3 26 км 6/0
[Ac trans Ci sp]
+19.7 +12.9 65 +22 +27 комфорт 1021.5 1005.2
В 3 23 км 5/0
[Ac trans Ci sp]
+21.7 +14.1 62 +25 +33 комфорт 1021.4 1005.2
В 3 29 км 5/0
[Ac trans Ci sp]
+23.5 +14.5 57 +26 +37 жарко 1021.3 1005.2
В 3-8 {8} 23 км 4/0
[Ac trans Ci sp]
+25.4 +14.8 52 +28 +40 жарко 1021.4 1005.4
В 3 {9} 28 км 5/1 1500 м
[Cu med, cong Ac trans Ci sp]
+26.7 +12.4 41 +28 +38 жарко 1021.0 1005.1
В 5 {9} 29 км 5/3 1500 м
[Cu med, cong Ci sp]
+26.9 +12.5 41 +28 +34 жарко 1020.5 1004.6
В 3 26 км 8/5 1000 м
[Cb cap Ci sp]
+27.5 +11.9 38 +29 +33 жарко 1019.9 1004.0
ЮВ 3 {10} 40 км 9/6 1000 м
[Cb cap Ci sp]
+26.3 +10.4 37 +27 +30 жарко 1019.9 1004.0
СВ 1 {10} 30 км гроза, ливневой дождь 9/9 1000 м
[Cb cap]
+23.2 +12.5 51 +26 +27 жарко 1020.3 1004.2
В 1 35 км в посл. час гроза {ливн. дождь} 8/6 1000 м
[Cb cap Ci sp]
+21.8 +13.9 61 +25 +26 комфорт 1020.7 1004.5
ЮВ 5 {9} 50 км 9/8 1000 м
[Cb cap Ac trans]
+22.6 +10.4 46 +24 +25 комфорт 1021.0 1004.9
В 6-11 {11} 30 км {гроза, ливн. дождь} 9/6 1000 м
[Cb cap Ac trans Cs]
+22.1 +9.6 45 +24 +24 комфорт 1021.0 1004.8 +18.3 +27.8 0.2
В 3 {10} 50 км н/о +21.2 +8.5 44 +22 +22 комфорт 1020.7 1004.5
С 1 50 км н/о +18.7 +10.5 59 +20 +20 1021.6 1005.2
Ю 1 {10} 50 км н/о +18.9 +10.7 59 +21 +21 комфорт 1022.3 1005.9
СВ 2 40 км н/о +17.9 +11.7 67 +18 +18 1022.6 1006.2
В 3 50 км н/о +18.3 +11.4 64 +19 +19 1022.2 1005.8
ЮВ 2 {10} 40 км н/о +17.0 +11.3 69 +17 +17 1022.3 1005.8
СВ 2 40 км н/о +14.7 +10.9 78 +14 +14 1022.2 1005.6
ЮВ 2 45 км н/о +16.2 +11.8 75 +16 +16 1022.0 1005.5
ЮВ 2 35 км н/о +16.0 +11.8 76 +16 +16 1022.1 1005.6
ЮВ 2 35 км н/о +15.7 +11.9 78 +16 +16 1022.5 1006.0
ЮВ 3 30 км н/о +16.4 +12.2 76 +16 +16 1022.4 1005.9
ЮВ 3 30 км 6/0
[Ac trans Ci sp]
+19.1 +12.1 64 +20 +24 1022.2 1005.9 +14.7 +22.1 0.2
ЮВ 3 22 км 6/0
[Ac trans Cs]
+21.4 +13.1 59 +24 +29 комфорт 1022.1 1005.9
Ю 5 35 км 8/1 1000 м
[Sc Ac und Cs]
+21.5 +10.3 49 +23 +27 комфорт 1022.3 1006.1
ЮВ 4 30 км 6/1 1000 м
[Cu hum Ac trans Cs]
+22.2 +12.4 54 +25 +31 комфорт 1022.6 1006.4
ЮВ 5 {10} 30 км 8/3 1000 м
[Cu hum Ac trans Cs]
+23.4 +12.4 50 +26 +30 жарко 1022.3 1006.2
ЮВ 5-10 {10} 28 км в посл. час ливневой дождь 9/5 1000 м
[Cb cap Ac trans Cs]
+23.0 +11.7 49 +25 +28 комфорт 1022.2 1006.1
ЮВ 5 {11} 35 км {ливн. дождь} 8/4 1000 м
[Cb cap Ac trans Cs]
+24.5 +13.1 49 +27 +30 жарко 1021.6 1005.6 0.0
ЮВ 5 25 км 6/3 1000 м
[Cb calv Cs]
+25.0 +11.5 43 +26 +31 жарко 1021.2 1005.2
ЮВ 5 26 км 5/1 1000 м
[Cb calv Cs]
+25.4 +11.6 42 +27 +31 жарко 1020.7 1004.7
В 4 {10} 30 км 6/3 1500 м
[Cu med, cong Ac trans Cs]
+25.0 +11.2 42 +26 +28 жарко 1020.5 1004.5
В 5 35 км 6/4 1500 м
[Cb cap Ac trans Cs]
+24.2 +11.5 45 +26 +26 жарко 1020.2 1004.2
В 3 {9} 40 км 8/4 1000 м
[Cb cap Ac cuf]
+23.1 +11.5 48 +25 +26 комфорт 1020.6 1004.5
ЮВ 3 {10} 45 км 8/5 1000 м
[Cb cap Ac cuf Ci fib]
+22.0 +12.0 53 +24 +24 комфорт 1020.8 1004.6 +19.0 +25.7 0.0
ЮВ 2 40 км н/о +19.9 +11.6 59 +22 +22 комфорт 1021.5 1005.2
ЮВ 2 50 км н/о +18.6 +10.9 61 +20 +20 1021.5 1005.1
ЮВ 2 40 км н/о +17.1 +11.4 69 +17 +17 1021.2 1004.8
В 2 40 км н/о +16.9 +11.0 68 +17 +17 1021.7 1005.2
В 1 40 км н/о +16.9 +11.4 70 +18 +18 1022.1 1005.6
В 2 40 км н/о +17.0 +11.5 70 +17 +17 1021.9 1005.4
ЮВ 1 30 км н/о +16.4 +11.3 72 +17 +17 1021.8 1005.3
В 1 30 км н/о +14.9 +11.1 78 +15 +15 1022.1 1005.5
В 1 30 км н/о +15.1 +10.9 76 +16 +16 1022.5 1005.9
В 3 30 км слаб. ливневой дождь н/о +16.0 +11.4 74 +16 +16 1022.6 1006.1
В 2 26 км н/о +16.5 +11.0 70 +17 +17 1023.1 1006.6
ЮВ 3 28 км 8/0
[Ac trans Ci sp]
+18.7 +9.2 54 +19 +23 1023.4 1007.0 +14.8 +22.1 0.0
ЮВ 3 25 км 4/0
[Ac cast Ci sp]
+20.9 +8.2 44 +23 +29 комфорт 1023.2 1006.9
В 3 24 км 3/0
[Ac trans Ci sp]
+22.5 +8.9 42 +24 +33 комфорт 1023.3 1007.1
ЮВ 4 30 км 3/0
[Ac trans Ci sp]
+24.7 +8.2 35 +25 +34 комфорт 1023.1 1007.0
ЮВ 4 25 км 4/0
[Ci sp]
+25.5 +6.6 30 +25 +36 комфорт 1023.1 1007.1
ЮВ 4 25 км 4/0
[Ci sp]
+25.7 +4.7 26 +25 +35 комфорт 1023.0 1007.0
В 4 35 км 5/0
[Cs]
+26.1 +5.6 27 +25 +34 комфорт 1022.8 1006.8
ЮВ 3 {8} 30 км 5/1 2000 м
[Cu med, cong Cs]
+25.9 +4.9 26 +25 +33 комфорт 1022.6 1006.6
В 4 30 км 6/1 2000 м
[Cu hum Cs]
+25.1 +6.3 30 +25 +30 комфорт 1022.4 1006.4
В 2 {8} 30 км 8/0
[Cs]
+24.9 +6.1 30 +25 +29 комфорт 1022.1 1006.1
В 4 27 км 6/0
[Cs]
+24.7 +6.0 30 +25 +26 комфорт 1022.2 1006.2
В 2 30 км 4/0
[Cs]
+23.8 +5.6 31 +24 +25 комфорт 1022.5 1006.4
В 1 {8} 35 км 3/0
[Ci fib]
+20.8 +7.8 43 +23 +23 комфорт 1022.7 1006.4 +18.7 +26.4
штиль 0 35 км н/о +16.3 +8.0 58 +16 +16 1023.3 1006.8
штиль 0 35 км н/о +13.6 +9.4 76 +13 +13 1023.7 1007.0
В 1 23 км н/о +12.1 +9.8 86 +12 +12 1024.0 1007.2
З 1 13 км н/о +11.2 +9.9 92 +11 +11 1024.0 1007.2
штиль 0 1200 м дымка н/о +10.3 +9.4 94 +9 +9 1024.2 1007.3
штиль 0 1600 м в посл. час туман н/о +9.8 +8.9 94 +9 +9 1024.1 1007.2
штиль 0 13 км н/о +9.4 +8.3 93 +9 +9 1024.0 1007.1
штиль 0 8000 м дымка н/о +8.6 +7.7 94 +8 +8 1024.0 1007.0
В 1 600 м туман н/о +8.4 +7.6 95 +8 +8 1024.0 1007.0
ЮВ 1 25 км в посл. час туман н/о +13.2 +10.4 83 +13 +13 1024.0 1007.3
В 2 28 км н/о +16.7 +8.9 60 +17 +17 1023.8 1007.3
В 1 28 км 1/0
[Ci fib]
+19.8 +8.2 47 +22 +29 комфорт 1023.8 1007.5 +8.1 +20.8
ЮВ 1 26 км 3/0
[Ci fib]
+22.0 +9.2 44 +23 +34 комфорт 1023.6 1007.4
Ю 2 27 км 4/0
[Ci sp]
+23.7 +9.3 40 +25 +36 комфорт 1023.4 1007.3
ЮВ 4 30 км 4/0
[Ci sp]
+25.6 +6.2 29 +25 +35 комфорт 1023.0 1007.0
ЮВ 3 28 км 3/0
[Ci fib]
+26.0 +6.6 29 +26 +39 жарко 1022.7 1006.7
Ю 3 28 км 3/1 2000 м
[Cu hum Ci fib]
+26.5 +5.4 26 +26 +38 жарко 1022.3 1006.4
В 3 26 км 1/1 2000 м
[Cu hum Ci fib]
+26.6 +4.9 25 +26 +37 жарко 1021.9 1006.0
В 2 35 км 1/1 2000 м
[Cu hum Ci fib]
+26.9 +5.2 25 +26 +37 жарко 1021.4 1005.5
В 3 29 км 1/1 2000 м
[Cu hum Ci fib]
+26.8 +1.9 20 +25 +32 комфорт 1021.0 1005.1
Ю 2 40 км 1/1 2000 м
[Cu hum Ci fib]
+26.6 +2.5 21 +25 +30 комфорт 1020.4 1004.5
В 4 40 км 1/1 2000 м
[Cu hum Ci fib]
+26.1 +5.1 26 +25 +27 комфорт 1020.2 1004.3
В 3 35 км 1/0
[Ci fib]
+25.0 +5.2 28 +25 +25 комфорт 1020.0 1004.0
В 2 35 км 3/0
[Ci fib]
+23.1 +5.0 31 +23 +23 комфорт 1020.0 1003.9 +19.7 +27.2
ЮВ 2 40 км н/о +18.7 +6.8 46 +20 +20 1020.4 1004.1
ЮВ 1 35 км н/о +16.3 +7.8 57 +17 +17 1020.6 1004.1
В 1 45 км н/о +14.4 +8.8 69 +15 +15 1020.9 1004.3
штиль 0 40 км н/о +12.8 +8.3 74 +12 +12 1020.9 1004.2
СВ 1 35 км н/о +11.4 +9.6 89 +11 +11 1020.9 1004.1
штиль 0 14 км н/о +10.8 +9.7 93 +10 +10 1020.6 1003.8
штиль 0 5000 м в посл. час туман н/о +10.3 +9.5 95 +9 +9 1020.4 1003.6
штиль 0 3700 м туман н/о +9.7 +8.9 95 +9 +9 1020.3 1003.4
З 1 14 км в посл. час туман н/о +9.6 +8.8 95 +9 +9 1020.2 1003.3
ЮВ 1 25 км н/о +12.4 +11.5 94 +12 +12 1019.9 1003.2
ЮВ 1 20 км н/о +17.1 +11.4 69 +18 +18 1019.4 1003.0
ЮВ 2 30 км 3/0
[Ac trans Ci fib]
+21.2 +10.1 49 +23 +28 комфорт 1019.1 1002.9 +9.5 +23.1
В 2 27 км 3/0
[Ci fib]
+24.4 +10.7 42 +26 +34 жарко 1018.8 1002.8
ЮВ 3 30 км 3/0
[Ci fib]
+26.1 +7.6 31 +26 +36 жарко 1018.7 1002.8
В 3 35 км 4/1 2000 м
[Cu med, cong Ci sp]
+27.1 +8.5 31 +27 +38 жарко 1018.4 1002.5
ЮВ 4 {9} 35 км 9/6 2000 м
[Cu med, cong Ac trans Ci sp]
+25.9 +7.0 30 +26 +29 жарко 1018.0 1002.1
ЮВ 3 35 км 9/5 2000 м
[Cu med, cong Ac und]
+26.1 +7.6 31 +26 +29 жарко 1017.6 1001.7
ЮВ 3 {9} 35 км 9/5 2000 м
[Cu med, cong Ac trans]
+27.0 +8.4 31 +27 +30 жарко 1017.1 1001.3
Ю 3 40 км 9/6 1500 м
[Cb calv Ac trans]
+25.8 +7.4 31 +26 +28 жарко 1016.8 1000.9
ЮВ 2 30 км 9/4 1500 м
[Cb calv Ac trans Cs]
+26.0 +8.5 33 +26 +29 жарко 1016.3 1000.4
ЮВ 4 29 км 9/4 1500 м
[Cb calv Ac trans]
+25.0 +7.6 33 +25 +26 комфорт 1016.2 1000.3
Ю 1 40 км 9/1 1500 м
[Cu hum Ac As]
+23.7 +10.7 44 +25 +26 комфорт 1016.2 1000.2
ЮВ 1 30 км 8/0
[Ac trans Cs]
+23.7 +9.7 41 +25 +26 комфорт 1015.7 999.7
Местоположение метеостанции Тересполь (Польша): широта 52.07 долгота 23.62 высота над уровнем моря 137 м.
В архиве по умолчанию представлена погода в Тересполе за последнюю неделю. Архивные данные за месяц целиком и за предыдущие месяцы, начиная с января 2011 года, Вы можете получить, выбрав интересующий диапазон дат из раскрывающегося списка и нажав кнопку "Найти!".
*Определитесь, кто Вы:
Внимание! Время в таблицах - всемирное. Для получения местного времени необходимо прибавить поправку, которая равна 1 ч.
Некоторые строки с данными для отдельных станций могут быть выделены курсивом. Это означает, что фактические данные отсутствуют по различным причинам, а приведенные значения являются расчетными модельными данными для данного пункта наблюдений.
Смотрите также архив погоды в соседних городах и на ближайших метеорологических станциях:
Партнеры нашего сайта:      
Пояснения к столбцам:
  • Ветер - указаны скорость ветра в м/с - средняя за 10 мин, порывы в срок и между сроками (в фигурных скобках) и направление, откуда дует ветер: С - северный,
  • СВ - северо-восточный, В - восточный, ЮВ - юго-восточный, Ю - южный, ЮЗ - юго-западный, З - западный, СЗ - северо-западный.
  • Видимость - горизонтальная дальность видимости в метрах или километрах. При видимости от 1 до 10 км при отсутствии осадков обычно наблюдается дымка, при ухудшении видимости до 1 км и менее - туман. В сухую погоду видимость может ухудшаться дымом, пылью или мглою.
  • Явления - указаны атмосферные явления, наблюдавшиеся в срок или в последний час перед сроком; фигурными скобками обозначены явления, наблюдавшиеся между сроками (за 1-3 часа до срока); квадратными скобками обозначены град или гололедные отложения с указанием их диаметра в мм.
  • Облачность - указаны через наклонную черту общая и нижняя облачность в баллах и высота нижней границы облаков в метрах; квадратными скобками обозначены формы облаков: Ci - перистые, Cs - перисто-слоистые, Cc - перисто-кучевые, Ac - высококучевые, As - высокослоистые, Sc - слоисто-кучевые, Ns - слоисто-дождевые, Cu - кучевые, Cb - кучево-дождевые. Подробнее классификацию облаков см. в Атласе облаков (PDF).
  • T - Температура воздуха - температура, измеренная на высоте 2 м над землей.
  • Td - Температура точки росы - температура, при понижении до которой содержащийся в воздухе водяной пар достигнет насыщения.
  • f - Относительная влажность воздуха - влажноcть воздуха, измеренная на высоте 2 м над землей.
  • Te - Эффективная температура - температура, которую ощущает одетый по сезону человек в тени. Характеристика душности погоды. При расчете учитывается влияние влажности воздуха и скорости ветра на теплоощущения человека.
  • Tes - Эффективная температура на солнце - температура, которую ощущает человек, с поправкой на солнечный нагрев. Характеристика знойности погоды. Зависит от высоты солнца над горизонтом, облачности и скорости ветра. Ночью, в пасмурную погоду, а также при ветре 12 м/с и более поправка равна нулю.
  • P - Атмосферное давление - приведенное к уровню моря атмосферное давление.
  • Po - Атмосферное давление - измеренное на уровне метеостанции атмосферное давление.
  • Tmin - Минимальная температура - минимум температуры воздуха на высоте 2 м над землей.
  • Tmax - Максимальная температура - максимум температуры воздуха на высоте 2 м над землей.
  • R - Количество осадков - Количество выпавших осадков за период времени, мм. При наведении курсора мыши на число - период времени, за который выпало указанное количество осадков.
  • R24 - Количество осадков - Количество выпавших осадков за 24 часа, мм.
  • S - Снежный покров - Высота снежного покрова, см. При наведении курсора мыши на число - состояние снежного покрова и степень покрытия местности в баллах.